Regional Weather Roundup
Issued by NWS

Home | Current Version | Previous Version | Graphics & Text | Print | Product List | Glossary On
Versions: 1 2 3 4 5 6 7 8 9 10 11 12 13 14 15 16 17 18 19 20 21 22 23 24 25 26 27
000
ASUS45 KBOU 241407
RWRCO

WEATHER ROUNDUP FOR COLORADO
NATIONAL WEATHER SERVICE DENVER/BOULDER CO
800 AM MDT SAT JUN 24 2017

NOTE: "FAIR" INDICATES FEW OR NO CLOUDS BELOW 12000 FEET WITH NO
SIGNIFICANT WEATHER AND/OR OBSTRUCTIONS TO VISIBILITY.

COZ001>005-013-030-031-241500-
...NORTHWEST COLORADO...

CITY           SKY/WX    TMP DP  RH WIND       PRES   REMARKS
CRAIG          FAIR      52  36  54 CALM      30.35R
HAYDEN         FAIR      50  34  53 E5        30.35R
MEEKER         FAIR      51  34  52 CALM      30.34R
RABBIT EARS PA FAIR      43  28  56 NW6       30.52R
STEAMBOAT SPGS FAIR      48  36  62 CALM      30.35S
WALDEN         FAIR      43  36  75 CALM      30.42R
$$

COZ006>008-011-241500-
...WEST CENTRAL VALLEYS...

CITY           SKY/WX    TMP DP  RH WIND       PRES   REMARKS
GRAND JUNCTION FAIR      68  34  28 CALM      30.18R
MONTROSE       FAIR      64  30  27 SE8       30.26R
EAGLE          SUNNY     50  30  46 CALM      30.36R
RIFLE          FAIR      61  32  33 E3        30.26R
DELTA          FAIR      65  29  25 E5        30.23R
NUCLA          NOT AVBL
$$

COZ017>023-064>068-241500-
...SOUTHWEST COLORADO...

CITY           SKY/WX    TMP DP  RH WIND       PRES   REMARKS
DURANGO        FAIR      57  27  31 NE5       30.31R
CORTEZ         FAIR      59  31  34 CALM      30.25R
PAGOSA SPRINGS FAIR      58  29  33 CALM      30.39R
TELLURIDE      FAIR      57  23  27 SE5       30.48R
WOLF CREEK PAS FAIR      43  36  75 S17G28    30.67R
$$

COZ009-010-012-014-032>034-037-058>063-241500-
...CENTRAL COLORADO...

CITY           SKY/WX    TMP DP  RH WIND       PRES   REMARKS
ASPEN          FAIR      53  30  41 SE5       30.36R
BUENA VISTA    NOT AVBL
COPPER MTN     FAIR      48  21  34 W7        30.62R
BERTHOUD PASS  FAIR      39  28  65 NW22G29   30.62R
COTTONWOOD PAS FAIR      50  39  66 CALM      30.50R
GUNNISON       FAIR      49  31  49 CALM      30.40R
KREMMLING      NOT AVBL
LEADVILLE      FAIR      43  34  70 N5        30.48F
MONARCH PASS   FAIR      45  27  49 SW14      30.72R
SALIDA         CLOUDY    57  44  61 CALM      30.47S
SUNLIGHT       FAIR      50  18  27 NW3       30.57S
WILKERSON PASS FAIR      48  21  34 NW3       30.59R
$$

COZ069>075-241500-
...SAN LUIS VALLEY/SANGRE DE CRISTO MOUNTAINS...

CITY           SKY/WX    TMP DP  RH WIND       PRES   REMARKS
ALAMOSA        FAIR      55  45  68 N5        30.37R
DEL NORTE      FAIR      53  30  41 CALM      30.41R
LA VETA PASS   PTSUNNY   48  46  93 MISG      30.63R
SAGUACHE       FAIR      54  39  58 CALM      30.41R
$$

COZ035-036-038>040-241500-
...NORTHERN COLORADO FRONT RANGE...

CITY           SKY/WX    TMP DP  RH WIND       PRES   REMARKS
DENVER INTL AP PTSUNNY   57  49  74 E6        30.32R
DMNS CITY PARK   N/A     55  47  73 N7        30.33R
AURORA         MOSUNNY   54  51  90 CALM      30.33R
FRONT RANGE AP FAIR      59  50  72 E8        30.33R
ERIE MUNI ARPT CLOUDY    55  51  88 NW3       30.33R
BOULDER MUN AP CLOUDY    54  48  82 CALM      30.33R
CENTENNIAL     FAIR      53  46  77 NW5       30.34R
BROOMFIELD     CLOUDY    54  50  87 NW10      30.34R
FORT COLLINS   CLOUDY    58  39  49 E7        30.34R
LONGMONT       CLOUDY    59  51  76 CALM      30.34R
$$

COZ041-046-047-076>085-087-088-241500-
...PIKES PEAK/PALMER DIVIDE AND SOUTHERN FOOTHILLS...

CITY           SKY/WX    TMP DP  RH WIND       PRES   REMARKS
COLO. SPRINGS  PTSUNNY   58  45  62 S8        30.36R
A. F. ACADEMY  FAIR      58  44  60 S13       30.35R
SCHRIEVER AFB  PTSUNNY   58  45  63 S10       30.36R
CHEYENNE MTN   FAIR      55  46  71 E3        30.32R
ELLICOTT       FAIR     N/A N/A N/A SW6       30.35R
FALCON         NOT AVBL
FORT CARSON    FAIR      60  45  57 S9        30.32R
LIMON          CLOUDY    58  47  66 SE6       30.33R
MONUMENT HILL  FAIR      54  43  66 S15       30.38R
CANON CITY     PTSUNNY   63  52  67 CALM      30.31S
WALSENBURG     FAIR      61  48  63 E3        30.35R
TRINIDAD       PTSUNNY   61  47  59 E3        30.33R
$$

COZ042>045-048>051-090-091-241500-
...NORTHEAST COLORADO...

CITY           SKY/WX    TMP DP  RH WIND       PRES   REMARKS
GREELEY ARPT   PTSUNNY   57  40  52 CALM      30.33R
AKRON          CLOUDY    55  42  61 E7        30.32R
BURLINGTON     CLOUDY    58  50  75 S9        30.30R
WRAY           CLOUDY    57  46  67 E3G25     30.30S
YUMA           CLOUDY    54  45  71 NE5       30.30R
STERLING       PTSUNNY   61  46  59 NE5       30.30R
HOLYOKE        NOT AVBL
FORT MORGAN    NOT AVBL
$$

COZ086-089-092>099-241500-
...SOUTHEAST COLORADO...

CITY           SKY/WX    TMP DP  RH WIND       PRES   REMARKS
PUEBLO         CLOUDY    64  51  62 CALM      30.29R
LA JUNTA       CLOUDY    67  48  50 S7        30.28R
LAMAR          CLOUDY    68  47  46 SE7       30.27R
SPRINGFIELD      N/A     63  47  55 SE12      30.31R
$$




USA.gov is the U.S. government's official web portal to all federal, state and local government web resources and services.